www.pogodaiklimat.ru
ПОГОДА в Бангкоке
Время
(UTC), дата
00 9.10
03 9.10
06 9.10
09 9.10
12 9.10
15 9.10
18 9.10
21 9.10
00 10.10
03 10.10
06 10.10
09 10.10
12 10.10
15 10.10
18 10.10
21 10.10
00 11.10
03 11.10
06 11.10
09 11.10
12 11.10
15 11.10
18 11.10
21 11.10
00 12.10
03 12.10
06 12.10
09 12.10
12 12.10
15 12.10
18 12.10
21 12.10
00 13.10
03 13.10
06 13.10
09 13.10
12 13.10
15 13.10
18 13.10
21 13.10
00 14.10
03 14.10
06 14.10
09 14.10
12 14.10
15 14.10
18 14.10
21 14.10
00 15.10
03 15.10
06 15.10
09 15.10
12 15.10
15 15.10
18 15.10
21 15.10
Ветер
(напр.,м/с)
Видим. Явления Облачность Т
(С)
Тd
(С)
f
(%)
Тe
(С)
Тes
(С)
Комфортность P
(гПа)
Po
(гПа)
Тmin
(С)
Tmax
(С)
R
(мм)
R24
(мм)
S
(см)
штиль 0 8000 м дымка 8/3 600 м
[Cu med, cong Ac und Cs]
+26.2 +24.5 90 +37 +37 очень
душно
1011.5 1011.0 +26.0
СЗ 2 8000 м дымка 6/3 600 м
[Cu med, cong Ac und Cs]
+29.9 +24.9 75 +43 +50 опасность
перегрева
1013.1 1012.6
В 1 8000 м дымка 8/3 600 м
[Cu Sc Ac As Cs]
+31.6 +25.1 69 +46 +55 опасность
перегрева
1010.0 1009.5
штиль 0 8000 м гроза, ливневой дождь 8/4 600 м
[Cb cap Ac As Cs]
+28.8 +24.8 79 +41 +44 опасность
перегрева
1007.6 1007.1 0.7
штиль 0 8000 м дымка {гроза} 8/3 600 м
[Cu med, cong Ac und Cs]
+27.8 +24.0 80 +39 +39 очень
душно
1009.2 1008.7 +34.9 0.7
штиль 0 8000 м дымка 6/3 600 м
[Cu med, cong Ac As Cs]
+27.0 +24.3 85 +38 +38 очень
душно
1010.9 1010.5
штиль 0 8000 м дымка 8/3 600 м
[Cu med, cong Ac As Cs]
+26.9 +24.1 85 +37 +37 очень
душно
1010.0 1009.5
СЗ 1 8000 м дымка 8/3 600 м
[Cu med, cong Ac As Cs]
+26.4 +24.1 87 +37 +37 очень
душно
1009.7 1009.3
СЗ 2 8000 м дымка 8/3 600 м
[Cu med, cong Ac As Cs]
+26.1 +24.5 91 +37 +37 очень
душно
1011.3 1010.8 +26.0
штиль 0 8000 м дымка 8/3 600 м
[Cu med, cong Ac As Cs]
+31.0 +25.7 73 +46 +53 опасность
перегрева
1012.3 1011.8
ЮВ 2 10 км 8/4 600 м
[Cu med, cong Ac As Cs]
+32.0 +24.8 66 +45 +53 опасность
перегрева
1009.7 1009.2
штиль 0 8000 м в посл. час гроза 10/4 600 м
[Cu med, cong Ac As]
+27.5 +25.8 90 +41 +42 опасность
перегрева
1008.0 1007.5 27
ЮВ 2 8000 м дымка {гроза} 10/4 600 м
[Cu med, cong Ac As]
+27.5 +25.5 89 +40 +40 очень
душно
1008.9 1008.4 +35.7 27
штиль 0 8000 м дымка 10/4 600 м
[Cu med, cong Ac As]
+27.3 +25.2 88 +39 +39 очень
душно
1011.3 1010.8
штиль 0 8000 м дымка 8/3 600 м
[Cu med, cong Ac As Cs]
+27.0 +25.6 92 +40 +40 очень
душно
1010.8 1010.3
штиль 0 8000 м дымка 8/3 600 м
[Cu med, cong Ac As Cs]
+26.5 +25.4 94 +39 +39 очень
душно
1010.2 1009.7
штиль 0 8000 м дымка {дождь} 6/3 600 м
[Cu med, cong Cs]
+24.2 +23.9 98 +33 +33 очень
душно
1010.9 1010.4 +24.0 25
штиль 0 10 км 4/3 600 м
[Cu hum Cs]
+29.5 +26.0 81 +44 +56 опасность
перегрева
1011.8 1011.3
штиль 0 10 км 6/0
[Cs]
+32.5 +23.4 59 +43 +65 опасность
перегрева
1009.2 1008.7
ЮВ 4 10 км 10/5 600 м
[Cu med, cong Ac As]
+33.2 +23.6 57 +44 +45 опасность
перегрева
1006.4 1005.9
штиль 0 10 км 8/3 600 м
[Cu hum Ac lent Cs]
+30.8 +24.7 70 +44 +44 опасность
перегрева
1008.8 1008.3 +34.5
штиль 0 10 км 6/0
[Cs]
+29.8 +24.4 73 +42 +42 опасность
перегрева
1010.1 1009.7
штиль 0 10 км 6/0
[Cs]
+29.0 +24.7 78 +41 +41 опасность
перегрева
1009.4 1008.9
штиль 0 10 км 6/0
[Cs]
+28.0 +25.1 84 +40 +40 очень
душно
1008.8 1008.3
штиль 0 10 км 6/0
[Cs]
+27.5 +23.9 81 +38 +39 очень
душно
1010.5 1010.1 +25.3
ЮВ 2 10 км 10/3 600 м
[Cu hum Ac As]
+31.5 +24.8 68 +45 +47 опасность
перегрева
1011.9 1011.4
ЮЗ 4 10 км 6/0
[Cs]
+32.5 +24.7 64 +46 +56 опасность
перегрева
1009.4 1008.9
В 4 10 км 8/3 600 м
[Cu hum Ac lent Cs]
+31.5 +23.6 63 +43 +44 опасность
перегрева
1007.9 1007.4
ЮВ 2 10 км 10/5 600 м
[Cu med, cong Ac As]
+31.6 +25.1 69 +46 +46 опасность
перегрева
1008.9 1008.4 +34.5
штиль 0 10 км 10/5 600 м
[Cu med, cong Ac As]
+28.8 +25.5 82 +42 +42 опасность
перегрева
1009.8 1009.3
штиль 0 10 км 4/0
[Cs]
+27.6 +24.0 81 +38 +38 очень
душно
1010.5 1010.0
штиль 0 10 км 4/0
[Cs]
+27.3 +24.0 82 +38 +38 очень
душно
1008.3 1007.8
штиль 0 10 км 4/0
[Cs]
+27.0 +25.3 90 +39 +40 очень
душно
1009.6 1009.1 +26.6
Ю 2 10 км 5/0
[As op Cs]
+31.5 +25.9 72 +47 +56 опасность
перегрева
1011.1 1010.6
В 3 10 км 6/0
[Cs]
+34.7 +24.8 57 +48 +61 опасность
перегрева
1008.4 1007.9
ЮВ 2 10 км 8/3 600 м
[Cu hum Ac lent Cs]
+33.3 +25.4 63 +48 +50 опасность
перегрева
1006.2 1005.7
ЮВ 3 10 км 10/5 600 м
[Cu med, cong Ac As]
+30.6 +26.0 77 +46 +46 опасность
перегрева
1009.7 1009.2 +35.2
штиль 0 10 км в посл. час гроза 10/5 600 м
[Cu med, cong Ac As]
+26.5 +24.8 90 +38 +38 очень
душно
1005.5 1005.0 5
штиль 0 10 км {гроза} 10/5 600 м
[Cu med, cong Ac As]
+26.0 +24.6 92 +37 +37 очень
душно
1012.0 1011.6 5
штиль 0 10 км 10/5 600 м
[Cu med, cong Ac As]
+25.0 +23.5 91 +34 +34 очень
душно
1010.9 1010.4
штиль 0 10 км 8/3 600 м
[Cu med, cong Ac trans Cs]
+27.0 +25.0 89 +39 +39 очень
душно
1011.4 1010.9 +24.8 9
ЮВ 2 10 км 6/0
[Cs]
+28.5 +25.7 85 +42 +53 опасность
перегрева
1014.4 1013.9
ЮЗ 2 10 км 8/3 600 м
[Cu hum Ac lent Cs]
+33.0 +24.5 61 +46 +54 опасность
перегрева
1008.9 1008.4
ЮЗ 2 10 км 6/0
[Cs]
+33.7 +23.3 55 +44 +49 опасность
перегрева
1008.7 1008.2
штиль 0 10 км 4/0
[Cs]
+29.8 +25.4 77 +44 +44 опасность
перегрева
1009.9 1009.4 +34.7
штиль 0 10 км 6/0
[Cs]
+28.3 +23.8 77 +39 +39 очень
душно
1012.7 1012.2
штиль 0 10 км 4/0
[Cs]
+27.7 +23.8 79 +38 +38 очень
душно
1012.4 1011.9
штиль 0 8000 м 6/0
[Cs]
+26.0 +24.6 92 +37 +37 очень
душно
1012.6 1012.1
штиль 0 10 км 4/0
[Cs]
+27.1 +24.9 88 +39 +39 очень
душно
1010.9 1010.4 +26.0
штиль 0 10 км 8/3 600 м
[Cu hum Ac lent Cs]
+30.7 +24.7 70 +43 +51 опасность
перегрева
1013.2 1012.7
ЮВ 2 10 км 4/0
[Cs]
+33.3 +23.0 55 +44 +60 опасность
перегрева
1010.7 1010.2
СЗ 2 10 км 4/0
[Cs]
+33.4 +23.0 55 +44 +49 опасность
перегрева
1008.4 1008.0
штиль 0 10 км 4/0
[Cs]
+30.6 +23.4 65 +41 +41 опасность
перегрева
1010.3 1009.8 +35.3
штиль 0 10 км {дождь} 4/0
[Cs]
+27.6 +25.8 90 +41 +41 опасность
перегрева
1012.3 1011.8 2
штиль 0 10 км {дождь} 4/0
[Cs]
+27.0 +25.3 90 +39 +39 очень
душно
1010.9 1010.5 2
штиль 0 10 км 4/0
[Cs]
+26.5 +24.3 88 +37 +37 очень
душно
1010.2 1009.7
Местоположение метеостанции Бангкок (Таиланд): широта 13.73 долгота 100.56 высота над уровнем моря 4 м.
В архиве по умолчанию представлена погода в Бангкоке за последнюю неделю. Архивные данные за месяц целиком и за предыдущие месяцы, начиная с января 2011 года, Вы можете получить, выбрав интересующий диапазон дат из раскрывающегося списка и нажав кнопку "Найти!".
*Определитесь, кто Вы:
Внимание! Время в таблицах - всемирное. Для получения местного времени необходимо прибавить поправку, которая равна 7 ч.
Смотрите также архив погоды в соседних городах и на ближайших метеорологических станциях:
Партнеры нашего сайта:      
Пояснения к столбцам:
  • Ветер - указаны скорость ветра в м/с - средняя за 10 мин, порывы в срок и между сроками (в фигурных скобках) и направление, откуда дует ветер: С - северный,
  • СВ - северо-восточный, В - восточный, ЮВ - юго-восточный, Ю - южный, ЮЗ - юго-западный, З - западный, СЗ - северо-западный.
  • Видимость - горизонтальная дальность видимости в метрах или километрах. При видимости от 1 до 10 км при отсутствии осадков обычно наблюдается дымка, при ухудшении видимости до 1 км и менее - туман. В сухую погоду видимость может ухудшаться дымом, пылью или мглою.
  • Явления - указаны атмосферные явления, наблюдавшиеся в срок или в последний час перед сроком; фигурными скобками обозначены явления, наблюдавшиеся между сроками (за 1-3 часа до срока); квадратными скобками обозначены град или гололедные отложения с указанием их диаметра в мм.
  • Облачность - указаны через наклонную черту общая и нижняя облачность в баллах и высота нижней границы облаков в метрах; квадратными скобками обозначены формы облаков: Ci - перистые, Cs - перисто-слоистые, Cc - перисто-кучевые, Ac - высококучевые, As - высокослоистые, Sc - слоисто-кучевые, Ns - слоисто-дождевые, Cu - кучевые, Cb - кучево-дождевые. Подробнее классификацию облаков см. в Атласе облаков (PDF).
  • T - Температура воздуха - температура, измеренная на высоте 2 м над землей.
  • Td - Температура точки росы - температура, при понижении до которой содержащийся в воздухе водяной пар достигнет насыщения.
  • f - Относительная влажность воздуха - влажноcть воздуха, измеренная на высоте 2 м над землей.
  • Te - Эффективная температура - температура, которую ощущает одетый по сезону человек в тени. Характеристика душности погоды. При расчете учитывается влияние влажности воздуха и скорости ветра на теплоощущения человека.
  • Tes - Эффективная температура на солнце - температура, которую ощущает человек, с поправкой на солнечный нагрев. Характеристика знойности погоды. Зависит от высоты солнца над горизонтом, облачности и скорости ветра. Ночью, в пасмурную погоду, а также при ветре 12 м/с и более поправка равна нулю.
  • P - Атмосферное давление - приведенное к уровню моря атмосферное давление.
  • Po - Атмосферное давление - измеренное на уровне метеостанции атмосферное давление.
  • Tmin - Минимальная температура - минимум температуры воздуха на высоте 2 м над землей.
  • Tmax - Максимальная температура - максимум температуры воздуха на высоте 2 м над землей.
  • R - Количество осадков - Количество выпавших осадков за период времени, мм. При наведении курсора мыши на число - период времени, за который выпало указанное количество осадков.
  • R24 - Количество осадков - Количество выпавших осадков за 24 часа, мм.
  • S - Снежный покров - Высота снежного покрова, см. При наведении курсора мыши на число - состояние снежного покрова и степень покрытия местности в баллах.